COSMOS 1261 DEB, 29202

Orbit data source: Space-Track

COSMOS 1261 DEB, 29202 is space debris in HEO originally from a launch on Tue, 31 Mar 1981 UTC launched from the Plesetsk Missile And Space Complex (PKMTR). Debris objects in space refer to the collection of defunct objects orbiting the Earth. Examples of debris include non-operational satellites, rocket bodies, and fragments generated from explosions, collisions, or faulty payload assembly.

Not visible in the next 10 days
COSMOS 1261 DEB details
Identifier
29202, 1981-031L
Orbit
HEO
Last TLE update8 months ago
Origin
Flag of CISGUKOS (CIS)
ManufacturerUnknown
MissionSpacecraft
Bus & MotorUnknown
MassUnknown
Launch date (UTC)
1981-03-31 (44 years ago)
Launch vehicleUnknown
Launch site
Plesetsk Missile And Space Complex (PKMTR)
Object type
Payload
Rocket body
Debris
Shape & HBRUnknown
Radar Cross SectionMedium (>0.1 m² and <1 m²)

Expand to show TLE details & history

TLE from 8 months ago
0 COSMOS 1261 DEB
1 29202U 81031L   24173.60427786  .00583057  00000-0  56629-1 0  9992
2 29202  61.1234 274.9371 6974944  47.7775   3.2725  2.69787528    11
Epoch: 2024-06-21T14:30Z
Definitive object data (Epoch: 2024-06-21T14:30:09.607Z)
Latitude57.06322°
Longitude-155.18478°
Altitude497.81 km
Speed9.894 km/s
True Right ascension22h 10m 32s
True Declination56° 54' 00"
Sunlit
Object was in daylight at TLE epoch
Visualization observer readout
Observer readout values are unavailable because the object's trajectory could not be propagated. This is usually caused when the trajectory data is faulty or the object's orbit has decayed.
Visualization observer readout
Observer readout values are unavailable because the object's trajectory could not be propagated. This is usually caused when the trajectory data is faulty or the object's orbit has decayed.
Orbital elements
Apogee altitude30,619.965 km
Perigee altitude215.188 km
Semi-major axis21,795.714 km
Eccentricity0.6974944
Inclination61.1234°
RAAN274.9371°
Arg. of periapsis47.7775°
True anomaly24.96038°
Mean anomaly3.2725°
Eccentric anomaly10.6758°
Mean motion0.67451 °/min
BSTAR0.056629
Orbital period533.72 mins
Loading maneuver chart data...
Loading historical data...
Loading historical data...
Loading historical data...
Loading historical data...
Loading historical data...
Loading historical data...
Loading historical data...

COSMOS 1261 DEB Visibility forecast

Observer location: undefined°, undefined

COSMOS 1261 DEB is not visible in the next 10 days
Span
Click to sort rows by Start time (UTC) header in descending order
Start Az.
Max El. time (UTC)
Max El. Az.
Max El.
End time (UTC)
End Az.
|